Voltar ao catálogo

STARLINK-4643

AtivoComunicaçõesVLEO
NORAD 54824·PAYLOAD·🇺🇸 United States

Lançado Dec 28, 2022 de Cape Canaveral Space Force Station

Loading…

Próximas Passagens (próximas 24 horas)

TLE

AtualizadoSource: CelesTrak SupGP

Época: Sep 14, 2026, 22:22 UTC

1 54824C 22177E   26257.93243056 -.00056527  00000+0 -20477-2 0  2571
2 54824  42.9995 147.2029 0001361 247.0450 232.7427 15.27601243    10

Acompanhe STARLINK-4643 em tempo real com AllMySat

Download on the App Store